Regional Weather Roundup
Issued by NWS

Home | Current Version | Previous Version | Graphics & Text | Print | Product List | Glossary Off
Versions: 1 2 3 4 5 6 7 8 9 10 11 12 13 14 15 16 17 18 19 20 21 22 23 24 25 26 27 28 29 30 31 32 33 34 35 36 37 38 39 40 41 42 43 44 45 46 47 48 49 50

000
ASUS43 KTOP 160159
RWRKS

WEATHER ROUNDUP FOR KANSAS
NATIONAL WEATHER SERVICE GOODLAND KS
900 PM CDT MON SEP 15 2014

NOTE:  "FAIR" INDICATES FEW OR NO CLOUDS BELOW 12,000 FEET WITH NO
SIGNIFICANT WEATHER AND/OR OBSTRUCTIONS TO VISIBILITY.

KSZ001>006-013>018-027>032-041>047-160300-
NORTHWEST KANSAS

CITY           SKY/WX    TMP DP  RH WIND       PRES   REMARKS
GOODLAND       CLEAR     55  50  83 SE5       30.27R HAZE
HAYS           CLEAR     57  48  72 NE8       30.23R
HILL CITY      CLEAR     56  44  64 NE7       30.24S
RUSSELL        CLEAR     58  50  75 NE6       30.22R
$$

KSZ061>065-074>080-084>089-160300-
SOUTHWEST KANSAS

CITY           SKY/WX    TMP DP  RH WIND       PRES   REMARKS
DODGE CITY     CLOUDY    63  54  72 NE7       30.23R
ELKHART          N/A     59  56  90 NE3         N/A
GARDEN CITY    CLOUDY    62  54  74 E3        30.24R
GREAT BEND     MOCLDY    63  54  72 NE7       30.23R
LIBERAL        CLOUDY    63  54  72 NE6       30.27R
$$

KSZ066>073-081>083-090>101-160300-
SOUTHEAST KANSAS

CITY           SKY/WX    TMP DP  RH WIND       PRES   REMARKS
CHANUTE        CLOUDY    68  60  75 NE10      30.17R
COFFEYVILLE    MOCLDY    69  66  90 N7        30.14R
HUTCHINSON     CLEAR     63  56  78 NE3       30.20R
NEWTON         CLOUDY    63  54  72 NE3       30.22R
PARSONS        CLOUDY    69  62  78 NE6       30.17R
WICHITA INTL   MOCLDY    69  57  65 NE13      30.19R
WICHITA JABRA  CLOUDY    67  57  70 NE8       30.19R
WINFIELD       MOCLDY    70  62  76 NE12      30.18R
$$

KSZ007>012-019>026-033>040-048>060-102>105-160300-
NORTHEAST KANSAS

CITY           SKY/WX    TMP DP  RH WIND       PRES   REMARKS
CONCORDIA      CLEAR     56  48  74 NE5       30.24R
EMPORIA        CLOUDY    64  56  75 N9        30.20R
LAWRENCE       CLEAR     58  51  78 NE5       30.22R
MANHATTAN      CLEAR     59  51  75 NE8       30.22R
OLATHE IND     CLOUDY    60  52  74 N18       30.21R
OLATHE EXE     CLOUDY    60  52  74 NE12G18   30.21R
SALINA         CLEAR     65  50  58 NE8       30.22R
TOPEKA BILLARD CLEAR     59  53  80 N6        30.22R
TOPEKA FORBES  CLEAR     59  51  75 NE7       30.22R
$$



USA.gov is the U.S. government's official web portal to all federal, state and local government web resources and services.